Regional Weather Roundup
Issued by NWS

Home | Current Version | Previous Version | Graphics & Text | Print | Product List | Glossary On
Versions: 1 2 3 4 5 6 7 8 9 10 11 12 13 14 15 16 17 18 19 20 21 22 23 24 25 26 27 28 29 30 31 32 33 34 35 36 37 38 39 40 41 42 43 44 45 46 47 48 49 50
000
ASUS44 KMEG 231900
RWRTN
TENNESSEE HOURLY STATE WEATHER ROUNDUP
NATIONAL WEATHER SERVICE MEMPHIS TN
200 PM CDT SAT JUL 23 2016

TNZ002-004-019-021-049-052-054-088>092-232000-
WEST TENNESSEE

CITY           SKY/WX    TMP DP  RH WIND       PRES   REMARKS
MEMPHIS INTL   CLOUDY    84  70  62 S10       29.98F
NWS MEMPHIS      N/A     82 N/A N/A MISG        N/A
JACKSON        MOSUNNY   89  74  60 CALM      29.97F HX  98
DYERSBURG      MOSUNNY  N/A N/A N/A MISG        N/A
UNION CITY     PTSUNNY   90  75  62 VRB3      29.97R HX 100
PARIS          MOSUNNY   88  73  62 VRB3      30.00S HX  96
LEXINGTON      MOSUNNY   93  75  55 W6        29.97S HX 104
$$

TNZ008-025-027-028-033-062-065-066-232000-
NORTH MIDDLE TENNESSEE

CITY           SKY/WX    TMP DP  RH WIND       PRES   REMARKS
NASHVILLE      PTSUNNY   89  73  59 W9        29.98F HX  97
CLARKSVILLE    PTSUNNY   92  74  55 S3        29.98S HX 101
COOKEVILLE     SUNNY     95  77  55 NW5       30.00S HX 109
CROSSVILLE     MOSUNNY   89  69  51 W7        30.06F HX  93
$$

TNZ061-075-076-078-094-096-097-232000-
SOUTH MIDDLE TENNESSEE

CITY           SKY/WX    TMP DP  RH WIND       PRES   REMARKS
TULLAHOMA      SUNNY     93  66  40 VRB6      30.01F HX  96
WINCHESTER     MOSUNNY   93  72  49 VRB5      29.99S HX 100
MCMINNVILLE    SUNNY     88  73  62 SE8       30.02R HX  96
COLUMBIA       SUNNY     95  73  49 CALM      29.97S HX 105
SHELBYVILLE    MOSUNNY   93  75  55 VRB3      29.99F HX 104
$$

TNZ017-018-042-046-047-232000-
NORTHEAST TENNESSEE

CITY           SKY/WX    TMP DP  RH WIND       PRES   REMARKS
TRI CITIES     CLOUDY    94  63  35 S6        30.02F HX  95
$$

TNZ012-013-036-069-073-074-232000-
CENTRAL EAST TENNESSEE

CITY           SKY/WX    TMP DP  RH WIND       PRES   REMARKS
KNOXVILLE      PTSUNNY   95  70  44 W10       29.97F HX 101
OAK RIDGE      LGT RAIN  90  71  53 W6        30.01S HX  96
GATLINBURG       N/A     93  63  36 W6        29.97F HX  94
$$

TNZ083-085-099-232000-
SOUTHEAST TENNESSEE

CITY           SKY/WX    TMP DP  RH WIND       PRES   REMARKS
CHATTANOOGA    PTSUNNY   88  70  55 W12       29.99S HX  93
$$

SKY/WX REPORTED AS FAIR MEANS FEW OR NO CLOUDS BELOW
12 THOUSAND FEET.




USA.gov is the U.S. government's official web portal to all federal, state and local government web resources and services.